Total_Precipitation_Accumulation
1.38 1.42 1.53 1.63 1.63 1.61 1.61 1.58 1.69 1.74 1.79 1.83 1.92 2.04 2.09 2.23 2.54 2.88 2.79 2.83 2.86 2.86 2.85 3.01 3.06 3.20 3.23 3.09 3.07 3.15 3.36 3.63 3.39 2.98 2.84 2.77 2.61 2.37 2.35 2.22 2.11 2.08 2.00
1.18 1.25 1.34 1.48 1.52 1.53 1.56 1.67 1.78 1.81 1.81 1.76 1.87 1.97 1.93 2.07 2.37 2.68 2.81 2.95 3.07 3.02 3.04 3.20 3.21 3.22 3.18 3.07 3.10 3.10 3.16 3.47 3.42 3.13 3.06 2.99 2.82 2.57 2.52 2.40 2.12 1.96 2.00
1.10 1.15 1.23 1.38 1.56 1.66 1.71 1.76 1.90 1.99 1.97 1.94 1.96 1.93 2.08 2.24 2.32 2.48 2.65 2.70 2.82 2.91 3.07 3.11 3.05 3.18 3.09 3.08 2.95 2.92 2.98 3.15 3.49 3.29 3.17 3.21 3.10 2.81 2.77 2.57 2.36 2.34 1.97
1.09 1.25 1.34 1.55 1.76 1.85 1.88 1.94 1.98 2.03 2.02 2.05 2.07 2.09 2.22 2.31 2.28 2.33 2.47 2.57 2.63 2.70 2.86 2.95 2.99 3.01 3.05 3.21 3.07 3.05 3.20 3.34 3.47 3.41 3.30 3.39 3.39 3.20 3.05 2.85 2.69 2.49 2.17
1.29 1.49 1.69 1.88 1.94 1.99 2.05 2.07 2.13 2.16 2.06 2.17 2.23 2.22 2.24 2.16 2.04 2.30 2.42 2.40 2.60 2.64 2.64 2.62 2.70 2.92 2.98 3.02 2.83 3.02 3.24 3.26 3.22 3.24 3.21 3.36 3.40 3.33 3.08 2.88 2.75 2.70 2.45
1.70 1.85 1.93 2.01 2.05 2.00 2.02 2.04 2.19 2.24 2.29 2.41 2.43 2.46 2.39 2.09 2.26 2.28 2.28 2.42 2.56 2.56 2.56 2.48 2.37 2.37 2.46 2.59 2.62 2.67 2.82 2.96 3.08 3.12 3.11 3.18 3.23 3.23 3.20 3.07 2.94 2.80 2.63
1.95 2.14 2.15 2.14 2.14 2.09 2.13 2.15 2.14 2.27 2.40 2.45 2.45 2.48 2.44 2.43 2.37 2.05 1.98 2.02 2.12 2.16 2.16 2.16 1.93 1.84 2.20 2.23 2.40 2.37 2.27 2.32 2.44 2.70 2.85 2.83 3.02 3.14 3.31 3.16 3.12 2.93 2.65
2.10 2.22 2.30 2.36 2.42 2.48 2.55 2.53 2.57 2.63 2.68 2.63 2.58 2.61 2.66 2.60 2.56 2.17 2.05 1.93 1.95 1.93 1.92 1.89 1.93 1.94 1.97 2.16 2.23 2.19 2.08 2.04 2.10 2.12 2.27 2.52 2.75 3.08 3.27 3.28 3.43 3.26 2.88
2.24 2.40 2.49 2.56 2.62 2.66 2.68 2.80 2.96 3.11 3.18 3.10 3.06 3.10 3.07 3.10 3.08 2.65 2.47 2.22 2.12 2.01 2.02 2.07 2.10 1.94 2.01 2.04 2.09 2.07 2.01 2.00 2.05 2.07 2.06 2.23 2.45 2.66 3.00 3.15 3.24 3.24 2.90
2.36 2.53 2.74 2.89 2.97 2.94 3.01 3.22 3.41 3.58 3.62 3.64 3.66 3.65 3.55 3.51 3.45 2.99 2.79 2.51 2.45 2.37 2.40 2.25 2.13 1.94 1.88 1.83 1.84 1.89 1.82 1.80 1.94 2.01 2.00 2.03 2.15 2.36 2.68 2.76 2.85 3.08 2.88
2.60 2.72 2.89 3.06 3.20 3.25 3.38 3.49 3.69 3.85 3.84 3.79 3.74 3.70 3.56 3.46 3.34 2.98 2.78 2.55 2.56 2.59 2.48 2.36 2.18 2.00 1.78 1.72 1.68 1.68 1.75 1.86 1.95 2.02 2.14 2.27 2.38 2.50 2.52 2.55 2.67 2.79 2.85
2.84 3.00 3.10 3.17 3.03 3.00 3.31 3.54 3.79 4.02 3.98 3.90 3.92 3.76 3.59 3.46 3.17 2.93 2.73 2.56 2.62 2.66 2.59 2.47 2.30 2.14 1.87 1.77 1.61 1.60 1.72 1.71 1.79 1.94 2.02 2.15 2.26 2.40 2.54 2.65 2.71 2.71 2.68
2.91 2.97 3.11 3.15 3.14 3.22 3.45 3.65 3.88 4.01 3.96 3.85 3.81 3.69 3.48 3.27 3.10 2.84 2.59 2.48 2.52 2.46 2.55 2.67 2.45 2.26 2.04 1.87 1.84 1.83 1.72 1.62 1.79 1.94 1.90 1.95 2.04 2.23 2.55 2.81 2.93 2.97 2.79
2.59 2.61 2.62 2.74 2.91 3.17 3.50 3.59 3.67 3.71 3.75 3.73 3.62 3.46 3.40 3.36 3.27 2.97 2.62 2.36 2.33 2.36 2.42 2.52 2.41 2.24 2.02 1.87 1.90 1.85 1.72 1.70 1.83 1.91 1.95 1.99 2.10 2.22 2.42 2.62 2.86 2.96 2.85
2.29 2.30 2.39 2.51 2.72 2.95 3.18 3.32 3.28 3.31 3.52 3.42 3.18 3.00 2.90 2.83 2.90 2.78 2.46 2.28 2.23 2.31 2.39 2.44 2.39 2.27 2.10 1.97 1.90 1.94 1.95 1.90 1.84 1.86 2.02 2.08 2.10 2.07 2.11 2.30 2.61 2.76 2.64
2.04 2.04 2.08 2.15 2.35 2.53 2.68 2.79 2.83 2.61 2.67 2.59 2.42 2.28 2.16 2.14 2.13 1.97 1.79 1.74 1.82 2.01 2.10 2.27 2.32 2.24 2.14 2.08 2.05 2.04 2.03 1.96 1.88 1.88 1.94 2.00 2.02 2.02 2.03 2.14 2.32 2.52 2.51
2.13 2.08 2.07 2.10 2.23 2.28 2.30 2.35 2.40 2.31 2.19 2.10 1.92 1.77 1.69 1.67 1.64 1.61 1.63 1.64 1.72 1.79 1.81 1.99 2.06 2.06 2.08 2.12 2.11 2.03 1.97 1.93 1.98 1.94 1.89 1.93 1.99 2.02 2.06 2.14 2.20 2.34 2.44
2.45 2.38 2.24 2.18 2.19 2.13 2.12 2.19 2.32 2.35 2.22 1.97 1.77 1.57 1.45 1.44 1.47 1.59 1.77 1.73 1.75 1.75 1.72 1.84 1.88 1.90 1.98 2.07 2.11 2.07 1.99 1.97 2.01 1.98 1.96 2.01 2.12 2.17 2.13 2.13 2.18 2.23 2.35
2.37 2.35 2.22 2.18 2.21 2.31 2.28 2.26 2.33 2.33 2.39 2.27 1.98 1.74 1.61 1.55 1.59 1.73 1.80 1.68 1.73 1.73 1.73 1.83 1.89 1.90 1.94 2.04 2.09 2.13 2.11 2.12 2.11 2.13 2.12 2.13 2.23 2.32 2.21 2.11 2.19 2.37 2.42
2.08 2.15 2.07 2.03 2.03 2.20 2.27 2.27 2.29 2.39 2.38 2.25 2.04 1.76 1.53 1.41 1.40 1.62 1.73 1.82 1.91 1.93 1.94 1.93 2.00 2.02 2.02 2.04 2.08 2.11 2.17 2.20 2.18 2.19 2.22 2.25 2.30 2.33 2.23 2.20 2.22 2.36 2.36
1.81 1.81 1.82 1.84 1.91 2.06 2.19 2.23 2.18 2.15 2.18 2.08 1.91 1.64 1.44 1.31 1.39 1.52 1.67 1.78 1.85 1.91 1.95 1.97 2.00 1.95 1.93 1.99 2.02 2.03 2.12 2.18 2.19 2.20 2.29 2.32 2.29 2.28 2.22 2.24 2.27 2.32 2.39
1.79 1.77 1.66 1.69 1.90 2.00 2.05 2.08 2.01 1.95 1.96 1.94 1.80 1.54 1.42 1.31 1.39 1.52 1.68 1.73 1.76 1.78 1.78 1.82 1.82 1.80 1.79 1.82 1.88 1.92 1.98 2.01 2.02 2.05 2.16 2.24 2.25 2.23 2.23 2.28 2.35 2.44 2.45
1.58 1.70 1.71 1.73 1.83 1.84 1.83 1.95 1.98 1.98 1.97 1.92 1.74 1.58 1.48 1.49 1.54 1.62 1.71 1.74 1.70 1.68 1.68 1.71 1.70 1.67 1.60 1.64 1.72 1.79 1.90 1.94 1.91 1.91 1.98 2.01 2.09 2.11 2.10 2.12 2.18 2.33 2.38
1.28 1.45 1.52 1.54 1.60 1.67 1.73 1.83 1.90 1.87 1.87 1.89 1.79 1.66 1.62 1.67 1.71 1.73 1.76 1.71 1.65 1.67 1.67 1.64 1.58 1.52 1.47 1.53 1.57 1.54 1.52 1.55 1.57 1.66 1.75 1.80 1.89 1.98 2.00 2.04 2.16 2.23 2.31
1.21 1.38 1.39 1.37 1.37 1.48 1.60 1.67 1.69 1.64 1.60 1.58 1.52 1.46 1.48 1.56 1.65 1.65 1.63 1.60 1.56 1.55 1.49 1.44 1.43 1.40 1.34 1.28 1.27 1.24 1.32 1.31 1.26 1.30 1.43 1.59 1.68 1.83 1.96 2.04 2.18 2.31 2.33
1.18 1.26 1.28 1.25 1.25 1.37 1.57 1.63 1.62 1.62 1.62 1.57 1.50 1.46 1.47 1.51 1.49 1.48 1.47 1.47 1.44 1.42 1.38 1.32 1.26 1.21 1.19 1.12 1.10 1.15 1.16 1.10 1.08 1.15 1.18 1.32 1.50 1.66 1.78 1.88 1.98 2.18 2.27